Date,TemperatureHighF,TemperatureAvgF,TemperatureLowF,DewpointHighF,DewpointAvgF,DewpointLowF,HumidityHigh,HumidityAvg,HumidityLow,PressureMaxIn,PressureMinIn,WindSpeedMaxMPH,WindSpeedAvgMPH,GustSpeedMaxMPH,PrecipitationSumIn
2013-1-1,27,22,16,14,8,3,76,57,41,30.37,30.19,21,5,21,0.00
2013-1-2,28,20,11,13,6,-2,71,54,39,30.53,30.30,26,5,26,0.00
2013-1-3,37,24,12,3,-2,-6,52,34,16,30.52,30.28,20,3,20,0.00
2013-1-4,42,21,10,8,2,-4,61,44,23,30.39,30.15,14,1,14,0.00
2013-1-5,35,21,5,9,1,-100,70,47,27,30.54,30.25,17,-8,17,0.00
2013-1-6,45,35,13,7,3,-4,62,28,15,30.34,29.83,29,6,29,0.00
2013-1-7,44,36,31,14,3,-100,43,27,20,29.99,29.66,32,-3,32,0.00
2013-1-8,43,37,33,20,16,13,54,43,30,30.12,29.68,31,10,31,0.00
2013-1-9,52,46,36,20,15,8,51,30,18,30.15,29.64,34,9,34,0.00
2013-1-10,50,46,36,19,9,-100,46,24,16,29.64,29.29,30,-2,30,0.00
2013-1-11,36,13,4,21,4,-7,84,69,47,30.23,29.30,24,3,24,0.00
2013-1-12,10,5,0,-1,-5,-9,71,63,55,30.40,30.23,20,4,20,0.00
2013-1-13,12,4,-1,-2,-6,-9,74,63,46,30.50,30.37,13,2,13,0.00
2013-1-14,13,7,-4,-6,-10,-14,71,48,35,30.50,30.29,18,4,18,0.00
2013-1-15,32,24,12,13,4,-100,50,44,37,30.33,30.17,29,-3,29,0.00
2013-1-16,42,34,29,14,10,6,48,37,25,30.38,30.17,22,6,22,0.00
2013-1-17,46,34,18,11,7,3,60,34,19,30.52,30.11,22,5,22,0.00
2013-1-18,48,43,39,8,4,1,23,20,16,30.12,29.92,28,9,28,0.00
2013-1-19,48,41,35,9,5,0,30,22,15,30.18,29.97,25,7,25,0.00
2013-1-20,39,30,16,16,10,4,69,46,24,30.38,30.05,22,3,22,0.00
2013-1-21,48,39,16,14,8,2,70,29,18,30.38,29.94,26,7,26,0.00
2013-1-22,53,46,40,5,0,-5,21,15,10,30.02,29.92,22,8,22,0.00
2013-1-23,56,50,46,7,0,-8,19,12,9,30.00,29.84,29,10,29,0.00
2013-1-24,50,46,40,28,19,5,57,37,17,30.04,29.78,32,10,32,0.00
2013-1-25,50,43,37,25,22,19,56,45,31,30.09,29.91,30,9,30,0.00
2013-1-26,51,46,40,27,24,20,52,43,35,29.91,29.59,28,6,28,0.00
2013-1-27,51,45,40,28,26,24,56,47,36,29.61,29.52,23,5,23,0.00
2013-1-28,39,26,18,27,21,11,89,81,61,29.88,29.55,9,1,9,0.05
2013-1-29,27,19,8,13,5,0,76,56,36,30.27,29.82,14,4,14,0.04
2013-1-30,32,24,4,18,10,-3,80,54,42,30.21,29.91,25,6,25,0.00
2013-1-31,41,29,19,23,17,13,82,63,39,30.28,30.01,16,3,16,0.02